Temp
44 35 28 33 35 37 35 33 32 36 38 35 34 34 39 41 37 37 37 38 38 39 41 42 43 42 43 45 46 47 46 45 43 41 40 40 41 41 41 41 43 43 42 43
37 32 39 40 40 37 36 33 32 36 37 34 32 34 38 39 38 38 38 36 37 38 39 41 41 40 39 41 43 45 45 44 43 42 41 41 40 40 41 42 43 43 43 42
33 36 42 41 35 36 33 32 31 31 34 30 28 30 33 36 37 37 36 35 34 35 37 38 39 38 37 38 38 44 44 44 43 44 42 41 41 41 41 41 41 42 42 42
32 38 37 35 32 31 31 32 32 31 24 20 27 18 31 32 33 34 35 34 33 33 35 36 36 37 36 37 39 42 43 43 44 43 42 41 39 39 39 39 39 40 41 40
31 32 32 31 31 32 30 32 30 27 16 17 20 11 27 29 30 31 33 33 33 33 32 33 34 36 36 36 36 38 40 41 41 41 41 39 39 38 38 38 38 38 38 39
31 33 32 31 33 32 32 28 26 22 13 8 7 12 22 28 31 31 31 32 33 33 33 32 33 35 35 35 35 36 37 37 38 39 38 38 37 37 36 36 35 35 36 36
29 29 31 32 30 32 29 18 9 12 8 13 -1 11 26 31 32 31 34 32 31 32 32 32 32 33 33 33 34 36 36 35 36 36 35 35 35 35 34 34 33 33 33 34
14 19 24 31 28 25 25 18 12 6 9 12 2 12 28 29 29 29 31 31 31 30 31 31 32 32 32 32 32 33 34 33 34 34 33 33 34 33 33 32 32 32 31 32
16 21 28 30 30 28 25 14 22 5 -8 2 11 20 30 28 25 27 28 28 28 29 30 31 31 31 31 31 31 32 32 32 32 32 32 31 31 31 30 30 30 30 31 35
24 17 21 28 29 28 24 26 15 10 7 2 8 0 23 22 21 21 26 26 27 29 30 30 30 30 30 30 31 31 32 32 32 32 30 31 31 31 30 30 30 30 30 31
23 17 20 26 15 15 17 14 14 14 14 6 3 14 18 18 12 16 19 25 22 24 28 29 29 30 30 31 31 32 31 32 32 32 31 31 31 31 30 30 30 30 30 30
29 24 13 18 22 24 25 19 23 14 9 8 10 13 18 11 6 4 19 21 23 24 27 26 28 28 29 29 29 30 32 31 32 31 31 31 31 31 30 30 30 30 30 30
30 16 8 20 21 23 19 24 22 14 18 10 8 20 14 5 10 14 16 23 21 23 22 22 23 25 27 28 29 29 29 30 32 31 30 31 30 30 30 30 30 31 30 30
36 25 16 17 18 13 16 20 22 17 5 19 15 26 28 30 16 21 21 19 22 20 19 19 17 21 24 24 23 25 28 29 29 30 30 30 30 30 30 30 30 30 30 29
28 13 17 16 14 12 16 20 17 14 20 14 26 11 26 30 29 27 12 16 19 21 16 17 17 18 19 18 20 21 21 23 24 24 22 26 29 29 29 29 29 30 30 30
27 11 10 9 19 20 15 21 21 19 21 14 21 20 28 24 2 13 20 20 20 21 21 17 17 17 18 19 20 20 20 17 18 17 20 20 21 23 24 27 28 28 28 28
17 8 3 5 9 9 11 12 15 13 9 15 11 20 2 23 25 16 22 16 19 21 21 16 17 19 17 18 19 18 20 12 10 13 17 19 17 19 20 21 23 24 25 26
14 5 3 4 1 1 21 20 20 16 21 15 16 22 21 21 22 17 20 18 22 24 19 17 15 12 16 11 11 11 8 8 9 10 17 19 18 17 20 20 21 20 22 21
26 16 4 1 -3 12 24 20 19 17 20 26 22 22 24 23 22 27 30 23 25 23 21 18 17 16 12 11 18 14 13 12 10 17 19 19 18 19 20 20 21 22 20 22
20 26 12 -5 -2 1 21 20 23 24 12 25 26 27 26 27 20 27 34 30 30 27 28 29 28 27 27 30 29 23 22 19 22 23 22 22 21 20 20 22 22 23 19 21
14 18 12 8 5 10 23 25 25 10 18 27 27 27 26 22 26 31 33 32 30 30 30 30 29 29 30 31 30 28 26 23 27 27 24 22 22 22 21 22 20 20 18 20
13 10 5 7 2 7 23 22 18 23 26 27 27 26 26 27 28 29 30 31 31 30 31 31 29 29 30 30 28 27 26 29 27 26 25 25 25 26 27 23 23 21 19 17
13 18 10 16 18 24 26 25 28 28 25 25 24 26 25 24 25 26 27 29 30 31 33 33 30 28 27 28 27 25 28 27 25 22 22 21 23 25 25 22 23 22 21 20
20 18 15 17 20 23 25 27 27 27 25 26 27 25 25 23 24 24 25 26 28 30 30 30 26 24 25 24 24 25 24 23 18 18 18 20 19 21 20 22 22 21 21 20
20 15 11 14 18 19 22 25 26 26 26 24 25 24 23 23 23 24 24 25 27 28 30 30 27 27 26 24 22 21 23 20 19 16 17 18 19 18 19 20 21 22 23 24
16 18 16 14 21 21 23 25 23 22 22 24 22 21 23 23 22 23 23 25 25 26 27 27 25 24 25 23 22 21 21 19 15 16 18 19 19 19 19 19 20 27 29 30
MSLP
1022.85 1023.78 1024.92 1025.20 1025.22 1025.14 1024.77 1024.73 1024.65 1024.27 1024.52 1024.68 1024.32 1023.95 1023.17 1022.89 1023.01 1023.13 1023.38 1023.51 1023.64 1023.90 1024.06 1024.24 1024.05 1023.77 1023.46 1022.92 1022.96 1023.11 1023.47 1024.01 1024.56 1025.17 1025.54 1025.63 1025.67 1025.61 1025.68 1025.70 1025.68 1025.80 1025.92 1026.02
1024.08 1025.09 1025.70 1025.58 1025.51 1025.44 1025.36 1025.55 1025.58 1025.32 1025.55 1025.82 1025.59 1024.76 1023.62 1023.17 1022.94 1023.05 1023.45 1023.81 1024.04 1024.31 1024.51 1024.59 1024.47 1024.26 1024.06 1023.71 1023.40 1023.45 1023.62 1024.02 1024.46 1024.84 1025.20 1025.38 1025.57 1025.69 1025.68 1025.60 1025.62 1025.76 1025.87 1025.96
1025.84 1026.64 1026.22 1026.02 1026.44 1026.45 1026.79 1027.01 1027.25 1027.73 1027.34 1027.53 1027.29 1025.64 1024.17 1023.00 1022.96 1023.19 1023.69 1024.10 1024.46 1024.78 1024.95 1025.02 1024.94 1024.93 1024.58 1024.29 1023.97 1023.69 1023.79 1024.12 1024.46 1024.72 1025.19 1025.49 1025.63 1025.78 1025.82 1025.81 1025.90 1025.92 1025.88 1025.96
1027.47 1027.38 1027.10 1027.19 1027.75 1028.11 1028.20 1028.42 1028.73 1029.16 1029.81 1030.17 1029.73 1028.17 1025.53 1024.15 1023.91 1024.06 1024.46 1024.76 1024.96 1025.08 1025.20 1025.36 1025.42 1025.32 1025.20 1024.88 1024.31 1023.92 1023.96 1024.22 1024.51 1024.72 1025.15 1025.49 1025.86 1026.09 1026.24 1026.24 1026.22 1026.15 1026.07 1026.06
1028.76 1028.45 1028.29 1028.42 1028.85 1028.88 1029.20 1029.38 1030.07 1031.04 1031.93 1032.58 1032.04 1031.27 1026.66 1025.34 1024.51 1024.37 1024.47 1024.80 1025.10 1025.24 1025.43 1025.56 1025.60 1025.57 1025.49 1025.27 1024.98 1024.62 1024.56 1024.70 1024.85 1024.97 1025.17 1025.53 1025.95 1026.23 1026.32 1026.38 1026.37 1026.34 1026.27 1026.22
1029.23 1029.21 1029.43 1029.58 1029.64 1029.78 1030.06 1030.66 1031.62 1032.63 1033.66 1035.15 1034.16 1033.12 1028.44 1026.03 1024.86 1024.47 1024.17 1024.39 1024.82 1025.18 1025.44 1025.53 1025.54 1025.59 1025.64 1025.51 1025.31 1025.17 1025.14 1025.30 1025.30 1025.36 1025.56 1025.78 1026.03 1026.24 1026.42 1026.62 1026.74 1026.74 1026.69 1026.48
1030.16 1030.37 1030.50 1030.58 1030.58 1030.58 1031.09 1032.34 1033.77 1034.84 1035.80 1036.37 1036.01 1034.09 1028.09 1025.39 1024.73 1024.81 1024.82 1024.94 1025.19 1025.33 1025.45 1025.63 1025.75 1025.91 1025.94 1025.83 1025.70 1025.57 1025.62 1025.84 1025.81 1025.89 1026.11 1026.31 1026.42 1026.48 1026.60 1026.78 1026.88 1026.96 1026.93 1026.83
1032.14 1031.61 1032.01 1031.95 1032.11 1032.31 1032.76 1033.76 1035.12 1036.93 1038.11 1037.65 1036.44 1032.77 1026.82 1025.19 1025.27 1025.39 1025.34 1025.28 1025.50 1025.85 1026.05 1026.27 1026.32 1026.33 1026.27 1026.20 1026.15 1026.06 1026.03 1026.11 1026.10 1026.17 1026.37 1026.55 1026.71 1026.78 1026.86 1026.93 1026.98 1027.03 1027.08 1027.02
1032.69 1032.89 1032.73 1032.49 1032.49 1033.04 1033.50 1034.33 1035.38 1036.94 1039.32 1038.51 1034.88 1031.32 1027.46 1026.33 1026.33 1026.26 1026.21 1026.30 1026.34 1026.53 1026.61 1026.70 1026.63 1026.60 1026.52 1026.40 1026.26 1026.15 1026.15 1026.29 1026.32 1026.34 1026.42 1026.58 1026.74 1026.92 1027.07 1027.15 1027.15 1027.10 1027.02 1026.75
1032.68 1033.27 1033.25 1033.07 1033.12 1033.55 1033.83 1034.63 1035.47 1036.69 1038.31 1038.07 1035.21 1032.84 1029.49 1028.43 1028.17 1027.64 1027.52 1027.36 1027.15 1027.03 1027.00 1026.94 1026.82 1026.74 1026.71 1026.71 1026.74 1026.68 1026.54 1026.47 1026.49 1026.56 1026.64 1026.74 1026.79 1026.92 1026.96 1026.99 1026.94 1026.90 1026.81 1026.65
1032.37 1033.50 1033.87 1033.82 1033.84 1033.88 1034.54 1034.92 1035.70 1036.48 1037.10 1037.64 1035.64 1031.32 1028.82 1029.28 1029.51 1029.43 1028.66 1028.17 1027.89 1027.72 1027.29 1027.02 1026.89 1026.96 1026.90 1026.94 1026.92 1026.80 1026.74 1026.67 1026.65 1026.71 1026.78 1026.78 1026.79 1026.80 1026.90 1026.89 1026.84 1026.75 1026.58 1026.46
1032.32 1033.53 1034.27 1034.23 1034.01 1033.89 1033.90 1034.19 1034.97 1036.68 1036.96 1036.44 1035.42 1030.53 1029.19 1029.69 1029.78 1029.94 1029.38 1028.62 1027.86 1027.19 1026.85 1026.86 1026.82 1026.90 1026.89 1026.84 1026.90 1026.90 1026.76 1026.66 1026.57 1026.68 1026.73 1026.75 1026.80 1026.76 1026.70 1026.63 1026.55 1026.45 1026.35 1026.10
1032.28 1033.87 1034.87 1034.36 1034.64 1034.19 1034.36 1034.30 1034.92 1035.54 1035.64 1034.71 1034.59 1030.17 1028.61 1029.18 1029.55 1029.71 1029.58 1028.38 1027.98 1027.38 1026.90 1026.95 1026.97 1026.97 1026.92 1026.77 1026.67 1026.62 1026.62 1026.57 1026.50 1026.49 1026.48 1026.51 1026.53 1026.49 1026.47 1026.45 1026.35 1026.18 1026.16 1025.93
1032.56 1034.10 1035.08 1035.34 1034.79 1034.86 1034.90 1034.37 1034.57 1035.10 1035.28 1032.93 1031.99 1028.25 1029.08 1028.85 1029.63 1029.28 1028.86 1028.20 1027.88 1027.17 1026.90 1026.71 1026.82 1026.50 1026.46 1026.32 1026.23 1026.24 1026.23 1026.14 1026.16 1026.20 1026.26 1026.30 1026.27 1026.34 1026.32 1026.18 1026.08 1025.94 1025.80 1025.77
1033.76 1035.43 1036.03 1035.76 1035.59 1035.55 1034.90 1034.11 1034.35 1034.42 1032.95 1033.62 1029.06 1030.51 1028.54 1028.74 1029.34 1029.05 1028.55 1027.86 1027.54 1026.98 1026.66 1026.44 1026.43 1026.25 1026.16 1026.38 1026.13 1026.14 1026.20 1026.16 1026.05 1026.12 1026.27 1026.16 1026.05 1026.01 1025.94 1025.84 1025.66 1025.40 1025.18 1025.07
1034.97 1036.41 1037.70 1037.30 1036.45 1035.72 1035.02 1033.03 1032.85 1033.04 1032.83 1032.10 1030.60 1029.81 1028.05 1028.50 1029.09 1029.04 1028.24 1027.81 1027.37 1026.72 1026.18 1025.96 1026.07 1026.03 1025.99 1025.95 1025.82 1025.90 1025.99 1026.11 1025.96 1026.23 1026.15 1025.80 1025.78 1025.68 1025.50 1025.36 1025.23 1025.04 1024.81 1024.58
1036.13 1037.61 1038.95 1038.50 1037.40 1036.01 1034.38 1031.73 1031.53 1031.79 1031.57 1031.09 1030.48 1028.74 1029.04 1028.63 1028.60 1028.36 1027.67 1027.29 1026.88 1026.34 1025.66 1025.49 1025.51 1025.31 1025.36 1025.46 1025.30 1025.62 1025.52 1025.53 1026.04 1026.05 1025.64 1025.33 1025.14 1025.26 1025.05 1024.86 1024.82 1024.61 1024.42 1024.18
1036.33 1037.90 1039.22 1039.35 1038.19 1035.94 1031.34 1030.31 1030.15 1030.34 1029.90 1029.61 1029.42 1028.85 1028.96 1028.61 1027.66 1027.68 1026.76 1026.65 1025.85 1025.06 1024.84 1024.80 1024.58 1024.63 1024.64 1024.46 1024.62 1024.76 1025.07 1025.21 1025.34 1025.25 1024.99 1024.65 1024.63 1024.78 1024.47 1024.37 1024.20 1024.00 1023.76 1023.59
1036.06 1037.23 1039.21 1039.69 1038.63 1034.37 1030.38 1029.68 1029.62 1029.72 1029.01 1028.64 1028.95 1028.73 1028.37 1027.57 1026.64 1025.94 1025.29 1024.95 1024.38 1023.87 1023.68 1023.50 1023.61 1023.72 1023.79 1023.81 1023.68 1024.00 1024.20 1024.24 1024.36 1024.14 1023.99 1023.87 1023.81 1023.95 1023.82 1023.81 1023.47 1023.10 1022.97 1022.76
1036.64 1036.87 1037.96 1039.65 1038.64 1034.97 1030.38 1029.12 1028.92 1029.18 1029.06 1028.71 1028.65 1028.56 1028.22 1027.66 1027.06 1025.36 1024.93 1024.62 1023.95 1023.47 1023.08 1022.72 1022.49 1022.68 1022.70 1022.60 1022.83 1023.10 1023.16 1023.26 1023.28 1022.88 1022.84 1022.77 1022.81 1023.00 1023.07 1022.76 1022.60 1022.28 1022.12 1021.95
1037.33 1037.36 1037.75 1038.05 1037.30 1033.57 1029.90 1029.29 1029.12 1029.89 1029.79 1029.13 1028.88 1028.76 1028.43 1028.29 1027.54 1025.69 1024.78 1024.08 1023.58 1023.07 1022.44 1022.05 1021.80 1021.82 1021.60 1021.69 1021.99 1022.12 1022.14 1022.26 1021.73 1021.71 1021.80 1021.92 1021.93 1021.99 1021.87 1021.75 1021.59 1021.41 1021.36 1021.21
1036.27 1036.82 1037.08 1037.21 1036.06 1032.48 1029.66 1029.49 1029.97 1030.53 1029.60 1029.55 1029.23 1028.96 1028.50 1027.77 1026.72 1025.79 1024.84 1023.95 1023.28 1022.63 1022.03 1021.46 1021.36 1020.95 1020.74 1020.98 1021.32 1021.35 1021.36 1020.85 1020.89 1020.97 1021.11 1021.13 1021.02 1020.94 1020.80 1020.81 1020.62 1020.61 1020.63 1020.41
1035.57 1034.35 1034.47 1034.56 1032.20 1030.66 1030.63 1030.69 1030.58 1030.62 1030.48 1029.98 1029.69 1028.85 1028.41 1027.75 1026.77 1025.72 1024.67 1023.67 1022.86 1022.16 1021.45 1020.78 1020.55 1020.42 1020.25 1020.21 1020.43 1020.70 1020.14 1020.29 1020.38 1020.69 1020.62 1020.62 1020.47 1020.31 1020.20 1020.22 1019.85 1019.76 1019.63 1019.46
1034.14 1033.75 1033.90 1033.40 1031.62 1031.42 1031.04 1031.10 1031.14 1030.89 1030.60 1030.13 1029.62 1029.19 1028.64 1028.06 1026.95 1025.86 1024.82 1023.53 1022.55 1021.62 1020.84 1020.26 1020.24 1020.06 1019.73 1019.49 1019.44 1019.55 1019.59 1019.68 1020.19 1020.18 1020.06 1020.03 1019.91 1019.46 1019.30 1019.18 1019.09 1018.86 1018.49 1018.29
1033.94 1033.73 1033.44 1032.86 1031.87 1031.34 1031.08 1031.20 1031.10 1030.69 1030.38 1029.92 1029.30 1028.96 1028.31 1027.74 1026.84 1025.85 1025.09 1023.31 1022.55 1021.56 1020.44 1019.93 1019.64 1019.29 1018.72 1018.58 1018.50 1018.75 1018.78 1019.28 1019.58 1019.66 1019.58 1019.46 1019.38 1018.96 1018.54 1018.26 1018.06 1017.91 1017.15 1017.08
1033.99 1033.51 1033.42 1033.26 1033.18 1032.69 1032.12 1031.54 1031.10 1030.59 1030.05 1029.40 1028.93 1028.23 1027.35 1026.68 1026.08 1025.54 1024.71 1023.06 1022.10 1021.58 1020.34 1019.80 1019.42 1018.90 1018.23 1018.06 1017.78 1017.83 1018.09 1018.61 1018.84 1018.96 1018.86 1018.69 1018.54 1018.28 1018.06 1017.73 1016.95 1016.49 1016.05 1015.60
Wind_Speed
5 8 3 2 2 3 1 1 3 2 3 4 4 7 10 6 4 6 7 6 4 3 3 5 6 7 8 4 4 6 8 7 5 2 2 0 2 1 1 2 3 1 1 0
7 4 4 3 4 3 5 1 4 4 4 2 5 13 11 7 7 6 7 6 5 3 5 5 7 7 7 7 4 4 6 6 4 3 2 2 1 1 1 0 1 1 1 1
6 2 5 3 6 5 4 3 4 3 8 2 8 8 6 4 3 3 2 2 1 2 5 6 7 7 7 7 6 3 5 5 3 3 2 2 2 1 2 2 2 2 2 1
5 5 4 5 5 4 1 3 2 3 6 3 6 8 8 5 7 3 4 4 4 3 2 3 5 6 7 7 6 2 5 6 4 5 3 2 2 0 0 1 1 3 4 4
3 5 6 7 1 1 2 4 3 3 4 4 6 5 11 5 7 8 9 9 7 6 3 1 4 4 4 6 6 5 6 6 5 4 4 3 2 1 0 1 4 5 5 5
2 1 3 1 1 2 2 1 6 4 4 4 4 5 10 4 6 6 5 9 9 7 5 2 1 2 2 4 6 6 7 6 6 6 6 5 4 3 3 3 3 4 3 4
6 3 3 4 2 2 5 7 5 8 6 7 2 2 14 6 7 5 9 8 7 6 6 5 4 0 3 5 5 5 6 6 6 7 7 6 5 5 4 3 2 4 3 3
4 8 5 6 4 1 4 6 7 6 3 6 3 7 9 4 5 7 8 7 6 6 5 5 4 3 2 3 4 5 5 5 5 6 5 4 5 3 2 2 2 2 1 3
3 5 1 3 1 3 2 3 3 8 1 5 3 9 12 2 7 5 6 4 6 6 5 6 5 4 3 2 2 3 4 3 4 4 3 4 3 3 2 3 3 2 3 3
2 4 2 3 1 4 4 2 4 4 2 6 7 7 8 6 7 7 6 7 8 6 7 7 6 6 4 2 1 0 1 1 1 2 2 2 2 2 2 2 3 4 4 4
5 5 6 2 2 5 3 2 3 3 4 5 4 8 9 8 4 7 9 8 8 8 8 8 7 6 5 3 3 2 2 1 1 1 1 2 2 2 3 3 3 4 4 4
0 4 3 8 1 2 3 5 5 6 7 4 2 12 1 6 5 4 10 9 8 9 10 6 6 6 5 5 4 5 4 3 3 2 2 3 3 3 4 4 4 3 5 4
3 3 5 9 3 4 3 4 4 3 2 9 3 10 3 3 6 6 8 10 8 9 9 7 6 7 7 6 6 6 5 5 4 3 3 3 3 3 4 5 5 5 5 6
1 2 8 9 9 3 2 3 4 6 3 6 10 25 15 19 7 11 10 9 10 10 9 7 7 8 7 7 6 6 6 6 5 4 3 4 4 4 5 5 5 5 5 6
4 5 2 5 6 2 6 13 7 11 12 6 28 6 21 19 15 15 8 10 10 12 8 9 8 7 7 6 6 5 5 4 3 4 3 5 5 4 4 5 5 6 5 6
3 3 3 6 5 1 6 16 12 12 14 12 19 24 18 10 4 7 10 10 11 13 12 8 9 7 8 8 7 5 6 5 4 4 6 5 5 4 5 5 5 6 6 6
2 4 4 7 4 6 9 9 6 3 5 6 6 10 3 13 14 8 10 7 11 12 12 9 9 9 7 7 7 7 8 3 4 5 6 7 4 5 6 5 5 6 7 6
6 5 3 5 5 1 9 3 6 8 9 8 10 13 8 12 11 10 10 11 14 13 10 9 7 6 7 5 6 4 3 4 4 5 6 6 5 6 6 5 6 6 4 6
2 4 1 1 3 9 8 3 3 3 7 3 4 7 8 7 7 7 8 6 14 10 8 7 6 5 4 5 7 5 4 4 3 7 7 7 6 6 6 7 7 7 5 6
2 2 5 4 2 6 6 0 0 3 5 4 3 10 14 14 13 15 15 7 12 9 7 7 6 6 6 7 5 5 6 5 7 7 8 6 6 6 7 8 8 6 5 8
4 2 8 4 5 11 8 5 2 5 7 11 9 11 11 7 9 19 20 19 9 8 8 8 7 7 8 6 5 7 6 7 9 6 6 6 6 7 8 8 6 7 7 7
7 7 6 2 1 11 2 2 3 4 7 10 11 9 14 16 18 18 18 18 17 13 12 11 8 8 7 6 5 7 8 9 6 5 6 6 7 7 7 7 8 7 6 8
4 7 6 11 10 1 5 4 6 6 7 7 10 15 13 15 17 18 16 18 17 18 16 14 10 10 7 7 7 8 10 6 5 4 7 7 7 8 8 8 9 7 7 7
5 4 4 3 4 5 6 6 7 5 8 12 10 12 13 14 18 18 17 17 16 16 15 13 9 10 12 8 7 10 7 5 3 7 7 6 7 8 7 6 7 7 8 8
4 2 3 6 4 6 5 10 10 12 10 12 13 12 14 13 16 16 17 16 17 17 17 12 12 12 14 7 8 7 8 5 6 6 6 7 6 7 8 7 7 8 10 10
1 2 1 0 5 3 7 8 8 8 13 14 14 14 16 15 15 16 16 15 13 17 17 15 13 11 14 9 8 8 6 6 5 5 5 6 6 7 6 7 10 17 23 25
Wind_Direction
5 66 59 23 347 269 281 299 298 316 31 339 268 280 273 270 255 234 227 224 230 282 330 351 348 346 344 331 205 180 158 163 142 124 129 42 239 233 266 240 245 249 227 11
23 58 343 294 17 67 38 360 307 288 22 352 356 281 256 236 236 209 216 231 257 307 341 352 356 360 356 328 281 187 170 162 161 127 151 142 157 214 230 299 318 269 277 289
104 342 314 71 31 32 46 14 352 289 329 73 329 290 305 267 246 226 220 216 284 322 339 344 352 354 351 356 334 221 170 155 132 134 101 70 60 38 27 20 20 23 358 304
74 319 24 52 66 18 9 346 318 344 37 270 20 282 298 331 298 275 246 247 255 274 336 355 351 354 354 344 344 97 127 134 138 146 131 123 131 140 323 11 348 357 19 6
274 6 19 54 321 349 241 32 38 67 83 40 352 66 274 358 311 265 232 229 230 233 227 1 355 352 352 359 15 47 80 77 84 98 110 113 111 119 335 10 4 2 356 0
90 45 48 2 351 21 1 44 35 56 92 22 232 112 284 252 220 275 249 215 212 210 200 184 220 15 18 24 42 54 72 62 61 70 63 79 84 53 36 17 9 355 349 352
352 17 357 26 341 2 54 48 339 354 9 221 344 38 243 258 243 250 285 247 214 206 203 212 203 134 39 44 45 70 74 62 56 64 59 56 60 65 69 48 26 3 354 354
95 335 15 353 50 334 37 126 150 233 261 275 356 243 252 222 327 287 284 265 192 217 230 234 213 185 130 81 59 64 76 82 70 72 66 56 48 46 48 28 9 350 324 312
74 304 40 42 359 79 278 38 144 98 99 36 267 294 298 319 304 300 289 263 235 243 241 237 221 206 191 167 129 119 109 96 78 83 81 70 63 47 18 353 342 327 319 315
172 354 280 287 132 31 137 157 31 5 336 307 293 275 242 326 310 314 288 251 257 260 251 245 235 217 213 196 189 330 61 121 124 103 70 50 12 360 341 333 330 325 316 319
132 100 286 34 193 187 18 341 41 117 137 179 284 257 213 220 231 298 291 269 257 260 253 239 233 234 230 241 243 262 260 269 311 1 352 345 318 311 304 301 303 305 301 308
30 130 264 229 339 244 220 217 162 121 270 226 173 272 77 240 233 229 290 282 259 239 245 240 236 227 235 235 237 249 256 252 243 247 246 271 295 313 315 307 300 297 304 306
176 321 1 339 353 344 244 213 134 120 76 208 123 263 253 262 299 263 265 288 278 263 257 238 234 231 234 236 228 229 236 247 256 244 253 274 288 292 291 293 302 308 304 300
109 186 176 202 212 128 260 249 183 134 156 278 213 276 296 295 320 304 294 265 279 275 261 240 231 227 227 224 219 222 234 232 241 249 267 284 284 280 281 280 272 269 262 263
123 209 260 256 239 175 239 257 200 196 235 212 278 254 279 293 305 295 288 288 296 292 275 245 237 231 229 233 234 235 241 241 228 227 235 253 263 260 261 260 258 260 257 261
26 272 72 299 346 273 265 264 252 239 254 259 269 278 282 284 352 299 287 298 299 295 282 259 234 235 238 229 229 218 236 232 194 207 238 248 246 253 271 278 280 280 277 268
114 121 61 265 320 329 303 233 206 222 223 177 227 246 335 320 321 293 294 282 279 279 282 271 241 229 231 233 223 227 231 196 203 225 247 255 236 250 260 261 261 263 268 272
139 97 109 264 10 78 245 187 201 198 247 224 284 286 302 273 272 271 261 253 275 270 273 267 243 235 239 232 227 238 223 223 222 246 255 258 245 246 264 264 261 261 241 249
179 113 351 180 221 299 284 158 175 189 279 14 239 295 296 295 284 286 272 228 260 255 254 250 229 219 237 234 234 209 242 225 218 252 249 248 233 248 256 261 263 261 243 262
89 359 128 63 133 258 242 103 200 155 276 25 287 337 338 342 323 311 325 305 293 269 254 256 235 220 218 246 232 209 239 224 246 246 245 242 237 233 245 251 258 258 234 258
115 178 225 198 261 281 255 268 302 80 311 338 341 332 320 300 274 296 305 304 277 275 268 254 233 234 234 244 236 237 235 236 244 240 236 240 238 240 240 252 242 255 252 261
168 162 208 98 62 281 176 49 108 318 334 328 324 317 313 307 306 304 302 301 295 275 273 256 251 239 242 234 227 243 242 246 238 238 243 245 246 251 256 246 264 257 245 254
281 196 184 185 216 28 35 16 347 343 322 333 329 328 324 314 313 310 306 304 296 287 279 265 237 249 247 225 209 239 248 243 250 243 255 257 262 261 260 258 261 260 252 253
245 167 223 48 320 355 26 19 17 344 334 324 319 313 310 308 307 307 311 307 304 295 287 274 256 254 261 231 215 228 240 231 216 254 260 259 251 266 252 242 252 254 257 257
210 76 197 263 348 334 34 13 340 327 318 313 307 293 291 297 298 304 298 308 306 302 296 284 260 258 254 240 231 223 231 199 241 246 263 272 264 265 272 256 256 255 259 249
216 263 169 325 322 291 308 304 290 291 302 303 303 300 302 304 299 296 295 299 301 304 303 295 279 264 261 254 247 247 210 196 212 253 263 260 264 270 269 274 283 267 271 275